Volver al catálogo

STARLINK-30550

ActivoComunicacionesVLEO
NORAD 58045·PAYLOAD·🇺🇸 United States

Lanzado Oct 9, 2023 desde Vandenberg Space Force Base

Loading…

Próximos Pases (próximas 24 horas)

TLE

ActualizadoSource: CelesTrak SupGP

Época: Sep 15, 2026, 01:56 UTC

1 58045C 23156T   26258.08104167 -.00062232  00000+0 -18387-2 0  2582
2 58045  53.1582 198.7399 0001349  85.5595 265.2865 15.34420800    10

Sigue STARLINK-30550 en tiempo real con AllMySat

Download on the App Store